Tracking 27122 objects as of 24-Mar-2023
HD Live streaming from Space Station
objects crossing your sky now

STARLINK-2285

Track STARLINK-2285 now!
10-day predictions
STARLINK-2285 is classified as:


NORAD ID: 48019
Int'l Code: 2021-024AU
Perigee: 553.6 km
Apogee: 554.6 km
Inclination: 53.1 °
Period: 95.6 minutes
Semi major axis: 6925 km
RCS: Unknown
Launch date: March 24, 2021
Source: United States (US)
Launch site: AIR FORCE EASTERN TEST RANGE (AFETR)
Your satellite tracking list
Your tracking list is empty




NASA's NSSDC Master Catalog

Two Line Element Set (TLE):
1 48019U 21024AU  23083.26280277  .00095836  00000-0  63530-2 0  9991
2 48019  53.0532 126.3322 0000742  51.5786 308.5269 15.06475633111394
Source of the keplerian elements: AFSPC